TimeSAST,TemperatureF,Dew PointF,Humidity,Sea Level PressureIn,VisibilityMPH,Wind Direction,Wind SpeedMPH,Gust SpeedMPH,PrecipitationIn,Events,Conditions,WindDirDegrees,DateUTC
12:00 AM,50.0,46.4,87,30.33,6.2,NW,5.8,-,N/A,,Mostly Cloudy,310,2012-10-07 22:00:00
1:00 AM,50.0,46.4,87,30.30,6.2,NNW,4.6,-,N/A,,Partly Cloudy,330,2012-10-07 23:00:00
2:00 AM,51,45,74,30.31,12,,2.3,,,,,,2012-10-08 00:00:00
2:00 AM,50.0,44.6,82,30.30,6.2,Variable,1.2,-,N/A,,Mostly Cloudy,0,2012-10-08 00:00:00
3:00 AM,50.0,44.6,82,30.24,6.2,Variable,2.3,-,N/A,,Mostly Cloudy,0,2012-10-08 01:00:00
4:00 AM,50.0,46.4,87,30.24,-9999.0,ESE,3.5,-,N/A,,Clear,120,2012-10-08 02:00:00
5:00 AM,50,45,78,30.28,12,SE,3.5,,,,Mostly Cloudy,130,2012-10-08 03:00:00
5:00 AM,50.0,44.6,82,30.24,6.2,Variable,2.3,-,N/A,,Mostly Cloudy,0,2012-10-08 03:00:00
6:00 AM,50.0,46.4,87,30.27,6.2,West,4.6,-,N/A,Rain,Light Rain,260,2012-10-08 04:00:00
7:00 AM,50.0,46.4,87,30.27,6.2,NW,4.6,-,N/A,,Mostly Cloudy,320,2012-10-08 05:00:00
8:00 AM,50,48,89,30.29,19,NE,3.5,,,,Partly Cloudy,50,2012-10-08 06:00:00
8:00 AM,50.0,48.2,94,30.27,6.2,NE,2.3,-,N/A,,Scattered Clouds,40,2012-10-08 06:00:00
9:00 AM,51.8,48.2,88,30.24,6.2,East,5.8,-,N/A,,Mostly Cloudy,90,2012-10-08 07:00:00
10:00 AM,55.4,48.2,77,30.24,6.2,East,10.4,-,N/A,,Scattered Clouds,100,2012-10-08 08:00:00
11:00 AM,58,49,62,30.23,19,ESE,15.0,,,,Scattered Clouds,110,2012-10-08 09:00:00
11:00 AM,57.2,48.2,72,30.21,6.2,East,13.8,-,N/A,,Partly Cloudy,100,2012-10-08 09:00:00
12:00 PM,59.0,50.0,72,30.18,6.2,ESE,13.8,-,N/A,,Scattered Clouds,120,2012-10-08 10:00:00
1:00 PM,60.8,51.8,72,30.18,6.2,ESE,12.7,-,N/A,,Mostly Cloudy,110,2012-10-08 11:00:00
2:00 PM,58,51,72,30.18,12,ESE,15.0,,,,Mostly Cloudy,110,2012-10-08 12:00:00
2:00 PM,59.0,51.8,77,30.15,6.2,ESE,15.0,-,N/A,,Mostly Cloudy,110,2012-10-08 12:00:00
3:00 PM,57.2,53.6,88,30.15,6.2,ESE,17.3,-,N/A,Rain,Light Rain,110,2012-10-08 13:00:00
4:00 PM,57.2,53.6,88,30.12,6.2,ESE,12.7,-,N/A,Rain,Light Rain,110,2012-10-08 14:00:00
5:00 PM,56,54,90,30.15,3,ESE,16.1,,,Rain,Light Rain,120,2012-10-08 15:00:00
5:00 PM,57.2,53.6,88,30.12,3.1,ESE,16.1,-,N/A,Rain,Light Rain,120,2012-10-08 15:00:00
6:00 PM,55.4,53.6,94,30.12,2.2,ESE,17.3,-,N/A,Rain,Rain,110,2012-10-08 16:00:00
7:00 PM,55.4,53.6,94,30.15,3.7,ESE,19.6,-,N/A,,Light Drizzle,120,2012-10-08 17:00:00
8:00 PM,56,53,87,30.17,4,ESE,20.7,,,Rain,Light Drizzle,120,2012-10-08 18:00:00
8:00 PM,55.4,53.6,94,30.15,3.7,ESE,20.7,-,N/A,,Light Drizzle,120,2012-10-08 18:00:00
9:00 PM,55.4,53.6,94,30.18,4.3,ESE,19.6,-,N/A,,Drizzle,120,2012-10-08 19:00:00
10:00 PM,55.4,53.6,94,30.15,6.2,ESE,18.4,-,N/A,,Overcast,120,2012-10-08 20:00:00
11:00 PM,55.4,53.6,94,30.15,6.2,ESE,17.3,-,N/A,Rain,Light Rain,120,2012-10-08 21:00:00